EW1600 Weather Reports


time (UTC)temp
C
wind
direction
speed
KPH
gust
KPH
rain 1hr
cm
rain 24hr
cm
rain mn
cm
humidity
%
barometer
mb
20260508030004 5 136 3.2 8.0 0.00 0.00 0.00 73 1017.3
20260508025503 4 111 1.6 8.0 0.00 0.00 0.00 74 1017.2
20260508025004 4 76 3.2 9.7 0.00 0.00 0.00 74 1017.2
20260508024504 4 82 3.2 8.0 0.00 0.00 0.00 74 1017.2
20260508024004 4 100 3.2 4.8 0.00 0.00 0.00 73 1017.2
20260508023504 5 71 3.2 9.7 0.00 0.00 0.00 73 1017.2
20260508023004 5 117 3.2 8.0 0.00 0.00 0.00 73 1017.3
20260508022504 4 105 1.6 4.8 0.00 0.00 0.00 74 1017.3
20260508021503 4 105 1.6 4.8 0.00 0.00 0.00 76 1017.3
20260508020504 4 109 4.8 8.0 0.00 0.00 0.00 77 1017.4
20260508015003 4 129 4.8 11.3 0.00 0.00 0.00 78 1017.4
20260508014504 3 139 3.2 8.0 0.00 0.03 0.00 78 1017.4
20260508014004 3 119 3.2 8.0 0.00 0.03 0.00 78 1017.4
20260508013504 4 103 3.2 8.0 0.00 0.03 0.00 77 1017.4
20260508013004 4 128 4.8 11.3 0.00 0.03 0.00 77 1017.4
20260508012503 4 135 4.8 11.3 0.00 0.03 0.00 77 1017.5
20260508012003 4 101 4.8 12.9 0.00 0.03 0.00 78 1017.4
20260508011504 4 127 4.8 11.3 0.00 0.03 0.00 77 1017.5
20260508011004 4 104 4.8 12.9 0.00 0.03 0.00 77 1017.6
20260508010504 4 117 6.4 11.3 0.00 0.03 0.00 77 1017.5
20260508010004 4 109 4.8 12.9 0.00 0.03 0.00 77 1017.5
20260508005504 4 97 4.8 11.3 0.00 0.03 0.00 77 1017.6
20260508005004 4 108 4.8 9.7 0.00 0.03 0.00 77 1017.6
20260508004504 4 109 3.2 4.8 0.00 0.03 0.00 77 1017.6
20260508004003 4 120 3.2 4.8 0.00 0.03 0.00 77 1017.7
20260508003504 4 131 3.2 9.7 0.00 0.03 0.00 77 1017.8
20260508003005 4 107 1.6 4.8 0.00 0.03 0.00 77 1017.9
20260508002504 4 87 3.2 12.9 0.00 0.03 0.00 77 1017.9
20260508002003 3 100 1.6 4.8 0.00 0.05 0.00 77 1017.9
20260508001504 3 100 1.6 4.8 0.00 0.05 0.00 78 1018.0
20260508001004 3 94 1.6 3.2 0.00 0.05 0.00 78 1018.1
20260508000504 3 11 0.0 3.2 0.00 0.05 0.00 78 1018.1
20260508000004 3 65 1.6 3.2 0.00 0.05 0.00 78 1018.1
20260507235504 3 5 0.0 3.2 0.00 0.08 0.00 78 1018.0
20260507235004 3 24 1.6 4.8 0.00 0.08 0.00 78 1018.1
20260507234504 3 61 0.0 3.2 0.00 0.08 0.00 78 1018.1
20260507234004 3 94 0.0 1.6 0.00 0.08 0.00 78 1018.1
20260507233503 3 93 0.0 3.2 0.00 0.10 0.00 77 1018.2
20260507232504 3 74 1.6 4.8 0.00 0.10 0.00 77 1018.1
20260507232004 3 69 1.6 4.8 0.00 0.10 0.00 77 1018.1
20260507231504 3 95 1.6 4.8 0.00 0.10 0.00 77 1018.1
20260507230004 3 102 1.6 4.8 0.00 0.15 0.00 76 1018.0
20260507225503 4 115 3.2 4.8 0.00 0.15 0.00 76 1018.0
20260507225004 3 122 3.2 4.8 0.00 0.20 0.00 76 1018.1
20260507224504 3 111 1.6 8.0 0.00 0.23 0.00 76 1018.1
20260507224004 3 104 3.2 9.7 0.00 0.25 0.00 76 1018.1
20260507223503 3 90 3.2 4.8 0.00 0.28 0.00 76 1018.1
20260507222004 3 95 3.2 9.7 0.00 0.33 0.00 75 1018.2
20260507221504 3 91 1.6 4.8 0.00 0.33 0.00 75 1018.3
20260507220504 3 101 1.6 9.7 0.00 0.33 0.00 74 1018.4
20260507220004 3 93 3.2 4.8 0.00 0.36 0.00 75 1018.4
20260507215504 3 87 4.8 11.3 0.00 0.38 0.36 75 1018.4
20260507215004 3 86 3.2 4.8 0.00 0.38 0.36 74 1018.4
20260507214504 3 90 1.6 4.8 0.00 0.41 0.36 74 1018.4
20260507214004 3 80 3.2 4.8 0.00 0.41 0.36 74 1018.5
20260507213004 4 78 3.2 8.0 0.00 0.43 0.36 74 1018.5
20260507212503 3 94 3.2 4.8 0.00 0.43 0.36 74 1018.5
20260507212004 3 82 1.6 3.2 0.00 0.43 0.36 74 1018.6
20260507211503 4 56 1.6 4.8 0.00 0.43 0.36 74 1018.6
20260507211004 4 73 1.6 4.8 0.00 0.43 0.36 73 1018.6
20260507210504 4 76 1.6 4.8 0.00 0.43 0.36 73 1018.6
20260507210005 4 84 1.6 4.8 0.00 0.43 0.36 73 1018.6
20260507205004 4 98 1.6 4.8 0.00 0.43 0.36 73 1018.6
20260507204505 4 99 1.6 4.8 0.00 0.43 0.36 72 1018.6
20260507204004 4 93 3.2 4.8 0.00 0.43 0.36 72 1018.6
20260507203504 4 86 3.2 4.8 0.00 0.43 0.36 72 1018.6
20260507203004 4 77 3.2 9.7 0.00 0.43 0.36 71 1018.6
20260507202503 5 111 3.2 9.7 0.00 0.43 0.36 71 1018.6
20260507202005 5 91 3.2 4.8 0.00 0.43 0.36 71 1018.5
20260507201504 5 92 3.2 9.7 0.00 0.43 0.36 71 1018.5
20260507201004 5 105 3.2 4.8 0.00 0.43 0.36 70 1018.5
20260507200503 5 100 3.2 8.0 0.00 0.43 0.36 70 1018.5
20260507200004 5 86 3.2 4.8 0.00 0.43 0.36 70 1018.5
20260507195503 5 116 3.2 4.8 0.00 0.43 0.36 69 1018.5
20260507194503 5 105 1.6 4.8 0.00 0.43 0.36 70 1018.5
20260507194003 5 119 1.6 4.8 0.00 0.43 0.36 69 1018.6
20260507193004 5 131 1.6 1.6 0.00 0.43 0.36 68 1018.6
20260507192004 6 111 0.0 1.6 0.00 0.43 0.36 68 1018.5
20260507191503 6 109 0.0 1.6 0.00 0.43 0.36 67 1018.5
20260507191003 6 107 0.0 1.6 0.00 0.43 0.36 66 1018.5
20260507190504 6 112 1.6 4.8 0.00 0.43 0.36 66 1018.5
20260507190004 6 138 0.0 4.8 0.00 0.43 0.36 64 1018.4
20260507185504 6 91 1.6 4.8 0.00 0.43 0.36 63 1018.4
20260507185004 7 110 0.0 4.8 0.00 0.43 0.36 63 1018.4
20260507184504 7 91 1.6 4.8 0.00 0.43 0.36 62 1018.4
20260507184003 7 106 0.0 3.2 0.00 0.43 0.36 61 1018.4
20260507183504 7 114 1.6 3.2 0.00 0.43 0.36 60 1018.4
20260507183004 7 107 1.6 3.2 0.00 0.43 0.36 60 1018.5
20260507182504 7 115 1.6 3.2 0.00 0.43 0.36 59 1018.4
20260507182004 7 127 1.6 4.8 0.00 0.43 0.36 59 1018.4
20260507181004 7 155 1.6 4.8 0.00 0.43 0.36 58 1018.4
20260507180503 7 121 0.0 4.8 0.00 0.43 0.36 58 1018.4
20260507180004 7 106 1.6 4.8 0.00 0.43 0.36 58 1018.5
20260507175504 8 84 1.6 4.8 0.00 0.43 0.36 56 1018.5
20260507175004 8 101 1.6 8.0 0.00 0.43 0.36 57 1018.4
20260507174004 8 129 1.6 4.8 0.00 0.43 0.36 56 1018.4
20260507173504 8 144 3.2 9.7 0.00 0.43 0.36 58 1018.4
20260507173004 8 202 1.6 4.8 0.00 0.43 0.36 56 1018.3
20260507172503 8 169 0.0 3.2 0.00 0.43 0.36 55 1018.3
20260507172004 8 266 1.6 4.8 0.00 0.43 0.36 55 1018.3
20260507171504 8 252 1.6 4.8 0.00 0.43 0.36 54 1018.3
20260507170004 8 200 1.6 4.8 0.00 0.43 0.36 53 1018.4
20260507165504 8 271 3.2 9.7 0.00 0.43 0.36 54 1018.4
20260507165004 9 206 3.2 4.8 0.00 0.43 0.36 54 1018.5
20260507164504 10 230 4.8 9.7 0.00 0.43 0.36 54 1018.4
20260507164003 10 224 4.8 11.3 0.00 0.43 0.36 54 1018.4
20260507163004 10 275 3.2 9.7 0.00 0.43 0.36 53 1018.4
20260507162504 11 243 3.2 9.7 0.00 0.43 0.36 52 1018.3
20260507161503 10 268 3.2 4.8 0.00 0.43 0.36 52 1018.4
20260507161004 10 255 4.8 9.7 0.00 0.43 0.36 52 1018.4
20260507160503 10 260 3.2 11.3 0.00 0.43 0.36 52 1018.4
20260507160004 10 226 4.8 14.5 0.00 0.43 0.36 48 1018.5
20260507155504 11 297 4.8 11.3 0.00 0.43 0.36 52 1018.5
20260507155003 11 166 4.8 9.7 0.00 0.43 0.36 49 1018.5
20260507154504 11 289 4.8 11.3 0.00 0.43 0.36 48 1018.5
20260507154004 11 308 4.8 9.7 0.00 0.43 0.36 45 1018.5
20260507153504 11 313 3.2 11.3 0.00 0.43 0.36 46 1018.6
20260507153003 11 324 3.2 4.8 0.00 0.43 0.36 45 1018.6
20260507152503 11 297 3.2 9.7 0.00 0.43 0.36 50 1018.6
20260507152004 10 279 1.6 9.7 0.00 0.43 0.36 48 1018.6
20260507151504 11 296 4.8 11.3 0.00 0.43 0.36 50 1018.6
20260507150504 11 300 4.8 14.5 0.00 0.43 0.36 47 1018.6
20260507150004 11 293 3.2 8.0 0.00 0.43 0.36 49 1018.6
20260507145504 11 288 4.8 11.3 0.00 0.43 0.36 46 1018.6
20260507145003 11 286 3.2 11.3 0.00 0.43 0.36 50 1018.6
20260507144003 11 298 8.0 16.1 0.00 0.43 0.36 49 1018.7
20260507143503 11 285 3.2 9.7 0.00 0.43 0.36 49 1018.7
20260507143004 11 288 3.2 14.5 0.00 0.43 0.36 48 1018.7
20260507142504 11 237 4.8 9.7 0.00 0.43 0.36 41 1018.7
20260507142004 11 282 4.8 11.3 0.00 0.43 0.36 44 1018.8
20260507141504 10 207 3.2 14.5 0.00 0.43 0.36 42 1018.7
20260507141004 10 269 3.2 11.3 0.00 0.43 0.36 44 1018.8
20260507140003 10 245 4.8 11.3 0.00 0.43 0.36 45 1018.8
20260507135504 10 245 3.2 12.9 0.00 0.43 0.36 44 1018.7
20260507135003 10 253 4.8 12.9 0.00 0.43 0.36 44 1018.8
20260507134504 10 274 4.8 12.9 0.00 0.43 0.36 47 1018.8
20260507134004 9 268 4.8 14.5 0.00 0.43 0.36 50 1018.8
20260507133504 8 273 4.8 11.3 0.00 0.43 0.36 47 1018.8
20260507133004 10 154 4.8 12.9 0.00 0.43 0.36 45 1018.9
20260507132004 9 252 3.2 12.9 0.00 0.43 0.36 50 1018.9
20260507131503 9 161 1.6 4.8 0.00 0.43 0.36 49 1018.9
20260507130503 10 278 1.6 12.9 0.00 0.43 0.36 46 1018.9
20260507130004 11 129 3.2 19.3 0.00 0.43 0.36 46 1019.0
20260507125504 10 185 4.8 14.5 0.00 0.43 0.36 46 1018.9
20260507125004 10 152 4.8 12.9 0.00 0.43 0.36 47 1018.9
20260507124504 10 286 3.2 12.9 0.00 0.43 0.36 48 1018.9
20260507124004 11 271 3.2 9.7 0.00 0.43 0.36 46 1018.9
20260507122504 8 273 1.6 4.8 0.00 0.43 0.36 49 1018.9
20260507122004 8 254 3.2 11.3 0.00 0.43 0.36 54 1018.9
20260507121504 8 159 1.6 8.0 0.00 0.43 0.36 51 1018.9
20260507121004 8 353 1.6 4.8 0.00 0.43 0.36 50 1018.9
20260507120503 8 271 3.2 9.7 0.00 0.43 0.36 53 1018.9
20260507120004 8 186 3.2 12.9 0.00 0.43 0.36 52 1018.9
20260507115504 8 203 4.8 14.5 0.00 0.43 0.36 52 1018.9
20260507115004 8 150 4.8 14.5 0.00 0.43 0.36 53 1018.9
20260507114504 10 144 3.2 4.8 0.00 0.43 0.36 50 1018.8
20260507114004 8 247 3.2 19.3 0.00 0.43 0.36 54 1018.8
20260507113504 8 170 6.4 16.1 0.00 0.43 0.36 55 1018.9
20260507113004 8 166 4.8 14.5 0.00 0.43 0.36 54 1018.8
20260507112503 8 208 4.8 16.1 0.00 0.43 0.36 52 1018.8
20260507112004 9 155 3.2 12.9 0.00 0.43 0.36 50 1018.8
20260507111506 9 167 1.6 4.8 0.00 0.43 0.36 51 1018.9
20260507111004 9 273 3.2 8.0 0.00 0.43 0.36 51 1018.9
20260507110504 9 277 3.2 12.9 0.00 0.43 0.36 53 1018.8
20260507110004 8 163 4.8 11.3 0.00 0.43 0.36 54 1018.8
20260507105504 8 152 4.8 11.3 0.00 0.43 0.36 51 1018.8
20260507105004 10 253 6.4 12.9 0.00 0.43 0.36 50 1018.7
20260507104504 11 285 8.0 14.5 0.00 0.43 0.36 50 1018.7
20260507104004 10 286 4.8 12.9 0.00 0.43 0.36 51 1018.6
20260507103504 9 288 3.2 12.9 0.00 0.43 0.36 59 1018.5
20260507102503 9 255 6.4 14.5 0.00 0.43 0.36 52 1018.5
20260507102006 10 259 3.2 14.5 0.00 0.43 0.36 53 1018.6
20260507101504 9 270 4.8 12.9 0.00 0.43 0.36 54 1018.5
20260507101004 8 249 4.8 16.1 0.00 0.43 0.36 57 1018.6
20260507100004 8 180 3.2 12.9 0.00 0.43 0.36 56 1018.5
20260507095504 8 202 3.2 9.7 0.00 0.43 0.36 56 1018.4
20260507095004 8 175 4.8 14.5 0.00 0.43 0.36 55 1018.4
20260507094003 8 151 8.0 19.3 0.00 0.43 0.36 58 1018.4
20260507093504 8 259 6.4 16.1 0.00 0.43 0.36 55 1018.4
20260507093004 8 149 1.6 11.3 0.00 0.43 0.36 60 1018.4
20260507092504 8 138 4.8 16.1 0.00 0.43 0.36 58 1018.4
20260507092004 8 247 4.8 12.9 0.00 0.43 0.36 60 1018.4
20260507091503 7 257 3.2 16.1 0.00 0.43 0.36 66 1018.3
20260507091004 7 133 4.8 12.9 0.00 0.43 0.36 63 1018.3
20260507090503 7 228 3.2 14.5 0.00 0.43 0.36 62 1018.3
20260507090004 7 177 3.2 11.3 0.00 0.46 0.36 66 1018.2
20260507085503 6 155 4.8 9.7 0.00 0.46 0.36 65 1018.2
20260507085003 7 184 3.2 8.0 0.00 0.46 0.36 66 1018.1
20260507084503 7 174 1.6 8.0 0.00 0.48 0.36 64 1018.2
20260507083504 6 175 3.2 12.9 0.00 0.51 0.36 66 1018.0
20260507082504 6 209 3.2 4.8 0.00 0.53 0.36 67 1018.0
20260507082004 6 152 3.2 12.9 0.00 0.53 0.36 67 1018.0
20260507081504 6 150 4.8 11.3 0.00 0.53 0.36 67 1017.9
20260507081004 6 210 3.2 14.5 0.00 0.53 0.36 67 1017.8
20260507080504 6 250 4.8 11.3 0.00 0.53 0.36 66 1017.8
20260507075004 6 207 1.6 14.5 0.00 0.53 0.36 69 1017.6
20260507074503 6 253 3.2 8.0 0.00 0.53 0.36 70 1017.6
20260507074003 5 229 3.2 9.7 0.00 0.53 0.36 69 1017.5
20260507073503 5 183 3.2 4.8 0.00 0.53 0.36 71 1017.5
20260507073004 5 205 1.6 4.8 0.00 0.53 0.36 72 1017.5
20260507072504 5 250 3.2 11.3 0.00 0.53 0.36 70 1017.5
20260507072004 5 296 3.2 9.7 0.00 0.56 0.36 71 1017.4
20260507071504 5 279 6.4 11.3 0.00 0.56 0.36 71 1017.4
20260507071004 4 277 1.6 9.7 0.00 0.56 0.36 72 1017.3
20260507070504 4 205 3.2 4.8 0.00 0.58 0.36 73 1017.3
20260507070009 4 167 1.6 4.8 0.00 0.58 0.36 73 1017.2
20260507065504 4 197 3.2 4.8 0.00 0.58 0.36 73 1017.2
20260507065004 4 205 3.2 12.9 0.00 0.61 0.36 74 1017.2
20260507064503 3 187 3.2 4.8 0.00 0.61 0.36 75 1017.2
20260507064004 3 166 1.6 8.0 0.00 0.61 0.36 76 1017.1
20260507063504 3 192 3.2 8.0 0.00 0.61 0.36 77 1017.1
20260507063004 3 189 1.6 4.8 0.00 0.61 0.36 77 1017.1
20260507062003 3 280 3.2 11.3 0.00 0.61 0.36 79 1017.2
20260507061503 3 275 3.2 11.3 0.00 0.64 0.36 80 1017.2
20260507061003 3 203 3.2 8.0 0.00 0.64 0.36 81 1017.2
20260507060504 3 139 1.6 8.0 0.00 0.66 0.36 82 1017.1
20260507060003 2 229 1.6 8.0 0.00 0.66 0.36 83 1017.1
20260507055004 2 193 1.6 3.2 0.00 0.69 0.36 85 1016.9
20260507054004 2 125 1.6 12.9 0.00 0.71 0.36 86 1016.9
20260507053504 2 248 3.2 9.7 0.00 0.71 0.36 85 1016.9
20260507053004 2 234 3.2 12.9 0.00 0.71 0.36 85 1016.8
20260507052003 2 205 1.6 9.7 0.00 0.71 0.36 85 1016.7
20260507051503 2 267 3.2 11.3 0.00 0.71 0.36 84 1016.8
20260507051003 2 161 3.2 12.9 0.00 0.71 0.36 84 1016.7
20260507050504 2 176 3.2 14.5 0.00 0.74 0.36 84 1016.6
20260507050004 2 203 4.8 12.9 0.00 0.74 0.36 84 1016.6
20260507045504 2 156 3.2 9.7 0.00 0.76 0.36 85 1016.5
20260507045003 2 252 3.2 12.9 0.00 0.76 0.36 85 1016.5
20260507044504 2 291 3.2 12.9 0.00 0.79 0.36 85 1016.4
20260507043004 2 163 1.6 14.5 0.00 0.79 0.36 83 1016.5
20260507042503 2 152 6.4 16.1 0.00 0.79 0.36 83 1016.4
20260507042004 2 243 3.2 11.3 0.00 0.79 0.36 83 1016.3
20260507041004 2 263 4.8 11.3 0.00 0.79 0.36 83 1016.2
20260507040004 2 205 1.6 4.8 0.00 0.79 0.36 83 1016.1
20260507035504 2 223 1.6 8.0 0.00 0.81 0.36 84 1016.1
20260507035004 2 259 3.2 4.8 0.00 0.81 0.36 84 1016.1
20260507034504 2 228 1.6 4.8 0.00 0.81 0.36 83 1016.0
20260507034004 2 160 3.2 11.3 0.00 0.84 0.36 84 1016.1
20260507033504 2 174 1.6 8.0 0.00 0.84 0.36 83 1016.1
20260507033004 2 256 3.2 11.3 0.00 0.84 0.36 83 1016.2
20260507032003 2 168 1.6 4.8 0.00 0.84 0.36 83 1016.1
20260507031003 2 251 3.2 9.7 0.00 0.84 0.36 84 1016.0
20260507030504 2 275 3.2 12.9 0.00 0.84 0.36 84 1015.9